SCP
0 0 0 0 0 0 0 0 0 0 0 0 0 0 0 0 0 0 0 0 0 0 0 0 0 0 0 0 0 0 0 0 0 0 0 0 0 0 0 0 0 0 0
0 0 0 0 0 0 0 0 0 0 0 0 0 0 0 0 0 0 0 0 0 0 0 0 0 0 0 0 0 0 0 0 0 0 0 0 0 0 0 0 0 0 0
0 0 0 0 0 0 0 0 0 0 0 0 0 0 0 0 0 0 0 0 0 0 0 0 0 0 0 0 0 0 0 0 0 0 0 0 0 0 0 0 0 0 0
0 0 0 0 0 0 0 0 0 0 0 0 0 0 0 0 0 0 0 0 0 0 0 0 0 0 0 0 0 0 0 0 0 0 0 0 0 0 0 0 0 0 0
0 0 0 0 0 0 0 0 0 0 0 0 0 0 0 0 0 0 0 0 0 0 0 0 0 0 0 0 0 0 0 0 0 0 0 0 0 0 0 0 0 0 0
0 0 0 0 0 0 0 0 0 0 0 0 0 0 0 0 0 0 0 0 0 0 0 0 0 0 0 0 0 0 0 0 0 0 0 0 0 0 0 0 0 0 0
0 0 0 0 0 0 0 0 0 0 0 0 0 0 0 0 0 0 0 0 0 0 0 0 0 0 0 0 0 0 0 0 0 0 0 0 0 0 0 0 0 0 0
0 0 0 0 0 0 0 0 0 0 0 0 0 0 0 0 0 0 0 0 0 0 0 0 0 0 0 0 0 0 0 0 0 0 0 0 0 0 0 0 0 0 0
0 0 0 0 0 0 0 0 0 0 0 0 0 0 0 0 0 0 0 0 0 0 0 0 0 0 0 0 0 0 0 0 0 0 0 0 0 0 0 0 0 0 0
0 0 0 0 0 0 0 0 0 0 0 0 0 0 0 0 0 0 0 0 0 0 0 0 0 0 0 0 0 0 0 0 0 0 0 0 0 0 0 0 0 0 0
0 0 0 0 0 0 0 0 0 0 0 0 0 0 0 0 0 0 0 0 0 0 0 0 0 0 0 0 0 0 0 0 0 0 0 0 0 0 0 0 0 0 0
0 0 0 0 0 0 0 0 0 0 0 0 0 0 0 0 0 0 0 0 0 0 0 0 0 0 0 0 0 0 0 0 0 0 0 0 0 0 0 0 0 0 0
0 0 0 0 0 0 0 0 0 0 0 0 0 0 0 0 0 0 0 0 0 0 0 0 0 0 0 0 0 0 0 0 0 0 0 0 0 0 0 0 0 0 0
0 0 0 0 0 0 0 0 0 0 0 0 0 0 0 0 0 0 0 0 0 0 0 0 0 0 0 0 0 0 0 0 0 0 0 0 0 0 0 0 0 0 0
0 0 0 0 0 0 0 0 0 0 0 0 0 0 0 0 0 0 0 0 0 0 0 0 0 0 0 0 0 0 0 0 0 0 0 0 0 0 0 0 0 0 0
0 0 0 0 0 0 0 0 0 0 0 0 0 0 0 0 0 0 0 0 0 0 0 0 0 0 0 0 0 0 0 0 0 0 0 0 0 0 0 0 0 0 0
0 0 0 0 0 0 0 0 0 0 0 0 0 0 0 0 0 0 0 0 0 0 0 0 0 0 0 0 0 0 0 0 0 0 0 0 0 0 0 0 0 0 0
0 0 0 0 0 0 0 0 0 0 0 0 0 0 0 0 0 0 0 0 0 0 0 0 0 0 0 0 0 0 0 0 0 0 0 0 0 0 0 0 0 0 0
0 0 0 0 0 0 0 0 0 0 0 0 0 0 0 0 0 0 0 0 0 0 0 0 0 0 0 0 0 0 0 0 0 0 0 0 0 0 0 0 0 0 0
0 0 0 0 0 0 0 0 0 0 0 0 0 0 0 0 0 0 0 0 0 0 0 0 0 0 0 0 0 0 0 0 0 0 0 0 0 0 0 0 0 0 0
0 0 0 0 0 0 0 0 0 0 0 0 0 0 0 0 0 0 0 0 0 0 0 0 0 0 0 0 0 0 0 0 0 0 0 0 0 0 0 0 0 0 0
0 0 0 0 0 0 0 0 0 0 0 0 0 0 0 0 0 0 0 0 0 0 0 0 0 0 0 0 0 0 0 0 0 0 0 0 0 0 0 0 0 0 0
0 0 0 0 0 0 0 0 0 0 0 0 0 0 0 0 0 0 0 0 0 0 0 0 0 0 0 0 0 0 0 0 0 0 0 0 0 0 0 0 0 0 0
0 0 0 0 0 0 0 0 0 0 0 0 0 0 0 0 0 0 0 0 0 0 0 0 0 0 0 0 0 0 0 0 0 0 0 0 0 0 0 0 0 0 0
0 0 0 0 0 0 0 0 0 0 0 0 0 0 0 0 0 0 0 0 0 0 0 0 0 0 0 0 0 0 0 0 0 0 0 0 0 0 0 0 0 0 0
0 0 0 0 0 0 0 0 0 0 0 0 0 0 0 0 0 0 0 0 0 0 0 0 0 0 0 0 0 0 0 0 0 0 0 0 0 0 0 0 0 0 0
Wind_Speed_500mb
23 22 21 20 18 16 15 14 13 12 10 11 10 9 10 12 13 14 13 12 9 4 7 4 15 15 16 16 18 20 20 22 23 25 25 27 30 32 29 34 32 36 38
25 22 21 20 20 17 16 16 15 14 13 15 14 12 12 15 16 18 16 14 10 14 17 18 18 16 15 14 15 16 17 20 21 21 23 27 27 27 31 29 35 35 36
24 23 22 22 18 17 18 19 18 17 17 17 17 11 13 17 20 23 24 18 17 19 20 23 22 19 13 12 14 14 16 17 18 19 21 25 26 25 26 28 33 33 37
27 28 27 24 22 22 21 21 21 21 22 21 20 17 17 21 23 24 32 24 23 23 24 23 22 19 13 10 11 15 16 15 15 16 17 19 21 25 24 25 32 32 34
33 32 30 26 27 26 25 25 26 25 24 23 21 21 24 23 25 27 23 27 29 28 25 24 22 20 15 15 15 15 15 12 12 12 13 17 15 20 19 22 26 29 30
41 39 35 32 33 32 32 31 31 30 27 25 26 27 28 30 30 30 24 31 30 31 29 27 24 22 17 17 17 14 15 13 10 9 9 14 12 14 21 18 23 27 29
47 45 43 40 40 40 36 34 34 37 35 34 32 31 34 37 36 34 33 36 34 34 33 31 29 26 23 21 19 16 15 14 10 8 7 8 12 8 15 19 20 23 28
53 53 50 48 47 46 43 41 40 42 42 43 41 35 34 35 38 44 42 40 40 38 45 43 36 31 28 25 23 21 19 17 13 9 5 5 7 10 10 14 18 21 24
59 58 56 53 52 53 51 47 44 43 47 49 50 47 20 33 39 46 49 48 45 42 43 45 45 40 35 31 27 25 23 19 16 11 7 4 1 6 9 13 16 19 21
63 62 61 60 57 59 59 55 52 49 46 52 54 58 62 59 42 36 44 52 52 49 49 48 48 47 43 38 33 29 26 23 20 15 11 9 7 5 7 9 11 15 19
68 68 67 66 65 64 65 62 61 60 56 52 58 61 63 73 74 60 52 53 59 61 56 57 53 52 51 45 40 34 31 26 23 18 15 14 12 12 13 10 13 13 18
73 75 73 72 70 70 69 69 67 67 69 67 65 69 74 71 67 78 82 84 80 69 63 61 63 55 57 52 46 40 36 32 26 22 19 18 17 17 19 20 19 17 16
75 74 73 74 74 73 72 72 75 77 78 80 79 81 81 86 88 89 86 84 82 75 69 64 64 63 62 59 53 46 41 36 30 26 25 22 20 21 22 23 23 22 22
75 73 72 71 73 74 74 76 78 81 85 88 90 87 87 87 92 94 95 90 84 80 76 74 63 66 66 62 56 50 45 40 32 29 28 28 24 25 27 25 23 25 27
73 73 72 70 69 69 70 74 79 82 86 89 94 97 98 97 92 90 95 97 99 74 83 76 72 66 66 61 61 57 50 42 35 32 31 30 30 29 29 29 27 27 28
73 73 73 69 67 66 66 69 73 71 76 79 85 91 98 102 105 102 101 102 101 108 84 72 73 68 61 59 61 58 50 45 41 34 32 34 34 33 32 33 30 30 30
72 73 71 69 68 67 68 66 66 67 72 76 80 87 87 80 95 100 102 107 107 103 101 76 75 60 60 55 58 60 55 50 41 34 34 39 36 37 37 36 34 33 33
68 70 69 68 67 66 61 67 69 69 73 76 82 86 83 83 91 89 86 92 99 99 95 89 75 65 62 55 57 56 57 48 38 34 41 41 40 43 43 39 38 37 36
68 66 65 65 64 62 63 65 69 69 73 77 71 69 75 78 86 100 81 84 88 98 73 80 64 65 63 56 62 65 60 50 37 32 46 46 42 50 47 45 41 40 38
68 69 68 66 64 64 67 69 73 70 71 74 76 81 82 80 86 80 75 76 88 90 97 81 62 65 64 60 68 66 64 52 35 34 43 49 45 57 53 49 45 43 41
52 54 55 55 57 62 65 67 70 71 77 79 77 75 74 72 69 69 73 73 70 80 81 80 73 62 72 57 66 71 63 45 33 36 37 40 54 61 57 51 49 45 44
34 37 39 42 48 55 62 66 69 68 69 73 76 74 73 72 77 75 73 73 67 62 75 73 69 61 63 51 59 65 60 51 41 35 38 40 54 62 60 55 53 49 46
33 35 38 41 45 49 52 55 58 63 64 66 69 71 69 67 69 63 64 67 64 72 67 62 53 50 50 60 60 67 59 50 44 38 33 41 46 59 55 56 58 52 47
36 37 40 44 45 46 49 51 54 52 50 47 46 48 51 52 51 53 57 58 59 56 56 54 55 57 52 49 57 64 57 55 45 37 37 48 51 68 59 57 59 54 48
38 40 41 44 46 44 47 48 44 42 42 43 43 45 49 49 49 51 53 50 51 52 53 50 50 45 47 43 54 51 59 54 52 43 42 46 63 64 59 53 56 54 51
32 32 36 38 39 39 42 41 40 39 40 44 44 43 46 44 42 38 37 38 44 46 46 47 43 43 43 52 58 60 59 49 50 47 45 46 61 54 49 50 54 55 55
Wind_Direction_500mb
188 191 193 196 202 208 215 220 220 217 217 235 258 286 307 320 329 335 337 334 326 154 138 25 354 17 15 27 30 29 34 32 34 37 41 44 50 58 46 48 46 47 40
199 200 204 206 214 220 224 230 228 225 225 232 254 277 300 321 321 327 327 325 303 277 288 305 326 344 0 23 31 39 36 29 29 35 37 46 52 52 48 54 54 42 47
209 212 219 222 226 233 233 233 232 233 234 236 255 272 300 303 312 323 325 313 306 298 294 305 312 321 340 11 16 17 17 20 20 28 37 61 57 43 53 50 49 41 36
217 219 224 230 234 239 241 243 242 240 235 234 253 271 282 299 312 305 324 312 307 305 302 305 313 312 323 344 353 355 357 2 10 24 55 64 68 56 48 40 42 33 28
228 231 233 233 241 246 251 254 253 248 239 245 250 267 269 282 288 291 303 319 308 305 299 301 306 309 312 319 323 335 342 353 7 24 47 66 54 60 45 39 36 32 26
233 236 239 238 242 247 252 254 255 248 244 243 246 256 262 271 278 267 293 303 303 305 297 295 297 296 293 299 306 311 322 335 350 5 38 72 57 52 48 31 36 30 22
236 240 242 242 245 249 253 257 257 250 242 239 241 240 250 267 271 256 286 290 292 295 300 296 294 292 289 290 292 292 300 313 318 333 15 58 66 47 49 38 25 23 24
241 243 246 248 249 253 253 253 255 255 246 240 240 241 247 254 247 263 273 278 281 284 294 290 292 290 286 285 286 287 285 291 296 311 342 44 65 43 31 33 33 24 22
242 246 250 252 254 255 257 257 256 258 253 243 243 241 247 253 259 258 260 263 268 269 272 293 291 286 283 278 275 278 282 281 282 281 295 325 66 22 34 27 17 17 13
248 249 251 253 254 257 256 256 255 257 254 248 247 248 251 260 267 268 265 262 264 268 271 270 282 283 276 272 268 267 269 273 274 277 284 290 297 297 347 357 13 8 8
252 253 254 255 255 256 258 258 255 253 253 251 246 249 253 254 258 261 269 265 263 266 270 266 266 271 271 266 262 260 261 263 263 266 274 285 290 298 312 325 342 354 356
256 256 256 257 258 259 260 260 260 256 254 252 249 246 249 254 258 260 260 264 266 268 264 261 261 261 267 260 254 252 253 256 256 259 266 275 284 293 306 314 322 332 347
258 259 259 259 261 263 263 263 260 258 256 254 253 252 253 256 261 267 268 266 263 264 259 256 259 255 257 254 253 247 248 252 254 258 264 271 281 292 299 303 311 320 325
261 263 263 263 265 267 267 266 264 263 261 260 258 258 260 260 260 263 266 265 260 262 258 259 259 259 255 252 250 247 247 249 250 254 263 270 281 284 292 296 299 310 319
261 264 266 267 268 268 269 269 268 268 267 267 265 262 262 264 262 263 262 264 263 256 259 262 259 267 253 249 247 245 243 246 249 251 263 271 277 282 287 289 294 305 311
266 269 272 273 275 275 276 276 277 277 276 275 274 272 269 268 267 266 265 267 266 258 251 266 265 266 256 245 241 240 238 241 245 253 259 267 270 277 281 284 289 298 305
271 275 278 280 280 280 279 282 280 280 277 277 278 275 278 282 277 276 272 271 272 267 257 258 264 254 245 241 239 238 234 237 240 252 266 263 270 276 278 279 286 292 299
273 273 276 277 278 278 278 276 280 277 280 282 280 281 280 284 286 277 281 281 287 269 253 249 261 247 239 240 238 237 235 237 239 252 274 269 270 276 275 276 281 287 294
268 271 272 273 274 274 274 274 274 277 275 279 279 283 285 285 284 288 285 284 293 267 264 249 255 249 242 236 234 228 230 235 234 260 278 269 269 273 271 272 278 285 291
267 266 266 265 264 266 268 270 274 275 274 276 279 279 278 277 279 281 284 290 281 263 270 253 249 244 242 243 232 230 231 231 229 272 275 263 267 271 270 269 275 283 287
262 264 266 265 262 262 265 268 270 272 274 276 277 278 279 281 285 284 281 284 286 270 262 248 245 240 243 233 234 232 230 229 235 268 272 281 281 271 268 267 272 280 282
258 260 262 261 260 260 262 266 269 270 271 272 274 275 280 285 286 286 283 282 283 272 260 248 246 238 239 249 246 238 233 227 242 262 273 284 280 273 269 267 271 273 276
259 262 264 266 267 269 272 273 274 275 277 279 279 279 279 279 282 285 284 282 283 274 254 248 246 237 256 260 250 241 233 229 242 264 290 292 298 280 269 266 269 268 269
261 263 267 269 272 274 275 277 277 280 285 292 295 294 292 288 286 286 284 285 280 270 257 243 225 236 238 258 259 248 240 238 244 263 278 276 311 292 271 266 265 262 263
264 268 271 274 276 278 280 281 284 288 294 295 293 293 292 290 287 283 283 282 273 264 259 249 241 244 239 243 246 243 237 240 246 257 278 281 312 291 274 267 264 262 259
265 270 273 277 280 281 283 284 285 284 283 286 288 287 289 292 290 292 286 279 270 262 256 255 246 244 254 249 242 241 242 249 250 258 277 286 307 284 276 274 265 262 264
Wind_Speed_850mb
23 22 21 20 18 16 15 14 13 12 10 11 10 9 10 12 13 14 13 12 9 4 7 4 15 15 16 16 18 20 20 22 23 25 25 27 30 32 29 34 32 36 38
25 22 21 20 20 17 16 16 15 14 13 15 14 12 12 15 16 18 16 14 10 14 17 18 18 16 15 14 15 16 17 20 21 21 23 27 27 27 31 29 35 35 36
24 23 22 22 18 17 18 19 18 17 17 17 17 11 13 17 20 23 24 18 17 19 20 23 22 19 13 12 14 14 16 17 18 19 21 25 26 25 26 28 33 33 37
27 28 27 24 22 22 21 21 21 21 22 21 20 17 17 21 23 24 32 24 23 23 24 23 22 19 13 10 11 15 16 15 15 16 17 19 21 25 24 25 32 32 34
33 32 30 26 27 26 25 25 26 25 24 23 21 21 24 23 25 27 23 27 29 28 25 24 22 20 15 15 15 15 15 12 12 12 13 17 15 20 19 22 26 29 30
41 39 35 32 33 32 32 31 31 30 27 25 26 27 28 30 30 30 24 31 30 31 29 27 24 22 17 17 17 14 15 13 10 9 9 14 12 14 21 18 23 27 29
47 45 43 40 40 40 36 34 34 37 35 34 32 31 34 37 36 34 33 36 34 34 33 31 29 26 23 21 19 16 15 14 10 8 7 8 12 8 15 19 20 23 28
53 53 50 48 47 46 43 41 40 42 42 43 41 35 34 35 38 44 42 40 40 38 45 43 36 31 28 25 23 21 19 17 13 9 5 5 7 10 10 14 18 21 24
59 58 56 53 52 53 51 47 44 43 47 49 50 47 20 33 39 46 49 48 45 42 43 45 45 40 35 31 27 25 23 19 16 11 7 4 1 6 9 13 16 19 21
63 62 61 60 57 59 59 55 52 49 46 52 54 58 62 59 42 36 44 52 52 49 49 48 48 47 43 38 33 29 26 23 20 15 11 9 7 5 7 9 11 15 19
68 68 67 66 65 64 65 62 61 60 56 52 58 61 63 73 74 60 52 53 59 61 56 57 53 52 51 45 40 34 31 26 23 18 15 14 12 12 13 10 13 13 18
73 75 73 72 70 70 69 69 67 67 69 67 65 69 74 71 67 78 82 84 80 69 63 61 63 55 57 52 46 40 36 32 26 22 19 18 17 17 19 20 19 17 16
75 74 73 74 74 73 72 72 75 77 78 80 79 81 81 86 88 89 86 84 82 75 69 64 64 63 62 59 53 46 41 36 30 26 25 22 20 21 22 23 23 22 22
75 73 72 71 73 74 74 76 78 81 85 88 90 87 87 87 92 94 95 90 84 80 76 74 63 66 66 62 56 50 45 40 32 29 28 28 24 25 27 25 23 25 27
73 73 72 70 69 69 70 74 79 82 86 89 94 97 98 97 92 90 95 97 99 74 83 76 72 66 66 61 61 57 50 42 35 32 31 30 30 29 29 29 27 27 28
73 73 73 69 67 66 66 69 73 71 76 79 85 91 98 102 105 102 101 102 101 108 84 72 73 68 61 59 61 58 50 45 41 34 32 34 34 33 32 33 30 30 30
72 73 71 69 68 67 68 66 66 67 72 76 80 87 87 80 95 100 102 107 107 103 101 76 75 60 60 55 58 60 55 50 41 34 34 39 36 37 37 36 34 33 33
68 70 69 68 67 66 61 67 69 69 73 76 82 86 83 83 91 89 86 92 99 99 95 89 75 65 62 55 57 56 57 48 38 34 41 41 40 43 43 39 38 37 36
68 66 65 65 64 62 63 65 69 69 73 77 71 69 75 78 86 100 81 84 88 98 73 80 64 65 63 56 62 65 60 50 37 32 46 46 42 50 47 45 41 40 38
68 69 68 66 64 64 67 69 73 70 71 74 76 81 82 80 86 80 75 76 88 90 97 81 62 65 64 60 68 66 64 52 35 34 43 49 45 57 53 49 45 43 41
52 54 55 55 57 62 65 67 70 71 77 79 77 75 74 72 69 69 73 73 70 80 81 80 73 62 72 57 66 71 63 45 33 36 37 40 54 61 57 51 49 45 44
34 37 39 42 48 55 62 66 69 68 69 73 76 74 73 72 77 75 73 73 67 62 75 73 69 61 63 51 59 65 60 51 41 35 38 40 54 62 60 55 53 49 46
33 35 38 41 45 49 52 55 58 63 64 66 69 71 69 67 69 63 64 67 64 72 67 62 53 50 50 60 60 67 59 50 44 38 33 41 46 59 55 56 58 52 47
36 37 40 44 45 46 49 51 54 52 50 47 46 48 51 52 51 53 57 58 59 56 56 54 55 57 52 49 57 64 57 55 45 37 37 48 51 68 59 57 59 54 48
38 40 41 44 46 44 47 48 44 42 42 43 43 45 49 49 49 51 53 50 51 52 53 50 50 45 47 43 54 51 59 54 52 43 42 46 63 64 59 53 56 54 51
32 32 36 38 39 39 42 41 40 39 40 44 44 43 46 44 42 38 37 38 44 46 46 47 43 43 43 52 58 60 59 49 50 47 45 46 61 54 49 50 54 55 55
Wind_Direction_850mb
188 191 193 196 202 208 215 220 220 217 217 235 258 286 307 320 329 335 337 334 326 154 138 25 354 17 15 27 30 29 34 32 34 37 41 44 50 58 46 48 46 47 40
199 200 204 206 214 220 224 230 228 225 225 232 254 277 300 321 321 327 327 325 303 277 288 305 326 344 0 23 31 39 36 29 29 35 37 46 52 52 48 54 54 42 47
209 212 219 222 226 233 233 233 232 233 234 236 255 272 300 303 312 323 325 313 306 298 294 305 312 321 340 11 16 17 17 20 20 28 37 61 57 43 53 50 49 41 36
217 219 224 230 234 239 241 243 242 240 235 234 253 271 282 299 312 305 324 312 307 305 302 305 313 312 323 344 353 355 357 2 10 24 55 64 68 56 48 40 42 33 28
228 231 233 233 241 246 251 254 253 248 239 245 250 267 269 282 288 291 303 319 308 305 299 301 306 309 312 319 323 335 342 353 7 24 47 66 54 60 45 39 36 32 26
233 236 239 238 242 247 252 254 255 248 244 243 246 256 262 271 278 267 293 303 303 305 297 295 297 296 293 299 306 311 322 335 350 5 38 72 57 52 48 31 36 30 22
236 240 242 242 245 249 253 257 257 250 242 239 241 240 250 267 271 256 286 290 292 295 300 296 294 292 289 290 292 292 300 313 318 333 15 58 66 47 49 38 25 23 24
241 243 246 248 249 253 253 253 255 255 246 240 240 241 247 254 247 263 273 278 281 284 294 290 292 290 286 285 286 287 285 291 296 311 342 44 65 43 31 33 33 24 22
242 246 250 252 254 255 257 257 256 258 253 243 243 241 247 253 259 258 260 263 268 269 272 293 291 286 283 278 275 278 282 281 282 281 295 325 66 22 34 27 17 17 13
248 249 251 253 254 257 256 256 255 257 254 248 247 248 251 260 267 268 265 262 264 268 271 270 282 283 276 272 268 267 269 273 274 277 284 290 297 297 347 357 13 8 8
252 253 254 255 255 256 258 258 255 253 253 251 246 249 253 254 258 261 269 265 263 266 270 266 266 271 271 266 262 260 261 263 263 266 274 285 290 298 312 325 342 354 356
256 256 256 257 258 259 260 260 260 256 254 252 249 246 249 254 258 260 260 264 266 268 264 261 261 261 267 260 254 252 253 256 256 259 266 275 284 293 306 314 322 332 347
258 259 259 259 261 263 263 263 260 258 256 254 253 252 253 256 261 267 268 266 263 264 259 256 259 255 257 254 253 247 248 252 254 258 264 271 281 292 299 303 311 320 325
261 263 263 263 265 267 267 266 264 263 261 260 258 258 260 260 260 263 266 265 260 262 258 259 259 259 255 252 250 247 247 249 250 254 263 270 281 284 292 296 299 310 319
261 264 266 267 268 268 269 269 268 268 267 267 265 262 262 264 262 263 262 264 263 256 259 262 259 267 253 249 247 245 243 246 249 251 263 271 277 282 287 289 294 305 311
266 269 272 273 275 275 276 276 277 277 276 275 274 272 269 268 267 266 265 267 266 258 251 266 265 266 256 245 241 240 238 241 245 253 259 267 270 277 281 284 289 298 305
271 275 278 280 280 280 279 282 280 280 277 277 278 275 278 282 277 276 272 271 272 267 257 258 264 254 245 241 239 238 234 237 240 252 266 263 270 276 278 279 286 292 299
273 273 276 277 278 278 278 276 280 277 280 282 280 281 280 284 286 277 281 281 287 269 253 249 261 247 239 240 238 237 235 237 239 252 274 269 270 276 275 276 281 287 294
268 271 272 273 274 274 274 274 274 277 275 279 279 283 285 285 284 288 285 284 293 267 264 249 255 249 242 236 234 228 230 235 234 260 278 269 269 273 271 272 278 285 291
267 266 266 265 264 266 268 270 274 275 274 276 279 279 278 277 279 281 284 290 281 263 270 253 249 244 242 243 232 230 231 231 229 272 275 263 267 271 270 269 275 283 287
262 264 266 265 262 262 265 268 270 272 274 276 277 278 279 281 285 284 281 284 286 270 262 248 245 240 243 233 234 232 230 229 235 268 272 281 281 271 268 267 272 280 282
258 260 262 261 260 260 262 266 269 270 271 272 274 275 280 285 286 286 283 282 283 272 260 248 246 238 239 249 246 238 233 227 242 262 273 284 280 273 269 267 271 273 276
259 262 264 266 267 269 272 273 274 275 277 279 279 279 279 279 282 285 284 282 283 274 254 248 246 237 256 260 250 241 233 229 242 264 290 292 298 280 269 266 269 268 269
261 263 267 269 272 274 275 277 277 280 285 292 295 294 292 288 286 286 284 285 280 270 257 243 225 236 238 258 259 248 240 238 244 263 278 276 311 292 271 266 265 262 263
264 268 271 274 276 278 280 281 284 288 294 295 293 293 292 290 287 283 283 282 273 264 259 249 241 244 239 243 246 243 237 240 246 257 278 281 312 291 274 267 264 262 259
265 270 273 277 280 281 283 284 285 284 283 286 288 287 289 292 290 292 286 279 270 262 256 255 246 244 254 249 242 241 242 249 250 258 277 286 307 284 276 274 265 262 264